ITY0275 LIME-LIMJ

Flight info

Callsign ITY0275
Flight time 0h 28m
Altitude 13000
Route VOG
Aircraft A320/M-SDE3FGHIRWY/LB1

Departure

Time 2026-05-07 10:57
Airport Il Caravaggio International Airport (LIME)

Arrival

Time 2026-05-07 11:25
Airport Genoa Cristoforo Colombo Airport (LIMJ)
Time Latitude Longitude Altitude Speed Heading
2026-05-07 10:26 45.66661 9.69930 761 ft 0 kts 195°
2026-05-07 10:49 45.66683 9.69938 761 ft 4 kts 193°
2026-05-07 10:50 45.66710 9.69945 761 ft 4 kts 187°
2026-05-07 10:50 45.66736 9.69947 762 ft 4 kts 169°
2026-05-07 10:50 45.66756 9.69934 762 ft 3 kts 110°
2026-05-07 10:50 45.66757 9.69929 762 ft 0 kts 104°
2026-05-07 10:53 45.66757 9.69933 762 ft 3 kts 104°
2026-05-07 10:53 45.66741 9.70020 762 ft 15 kts 104°
2026-05-07 10:53 45.66705 9.70202 762 ft 21 kts 105°
2026-05-07 10:54 45.66668 9.70405 762 ft 21 kts 105°
2026-05-07 10:54 45.66627 9.70618 762 ft 24 kts 105°
2026-05-07 10:54 45.66582 9.70874 762 ft 29 kts 105°
2026-05-07 10:54 45.66519 9.71171 761 ft 33 kts 108°
2026-05-07 10:55 45.66446 9.71500 761 ft 36 kts 102°
2026-05-07 10:55 45.66471 9.71850 762 ft 36 kts 91°
2026-05-07 10:55 45.66411 9.72204 757 ft 36 kts 104°
2026-05-07 10:55 45.66381 9.72422 761 ft 0 kts 91°
2026-05-07 10:56 45.66381 9.72433 762 ft 6 kts 83°
2026-05-07 10:56 45.66451 9.72449 761 ft 14 kts 326°
2026-05-07 10:56 45.66464 9.72414 761 ft 0 kts 286°
2026-05-07 10:57 45.66473 9.72369 762 ft 24 kts 287°
2026-05-07 10:57 45.66590 9.71737 765 ft 103 kts 285°
2026-05-07 10:57 45.66823 9.70458 816 ft 155 kts 283°
2026-05-07 10:57 45.67075 9.68984 1579 ft 153 kts 275°
2026-05-07 10:58 45.67009 9.67476 2311 ft 160 kts 254°
2026-05-07 10:58 45.66470 9.65991 2899 ft 181 kts 227°
2026-05-07 10:58 45.65575 9.64678 3808 ft 186 kts 226°
2026-05-07 10:58 45.64670 9.63349 4608 ft 188 kts 226°
2026-05-07 10:59 45.63759 9.62005 5384 ft 189 kts 226°
2026-05-07 10:59 45.62833 9.60638 6140 ft 193 kts 226°
2026-05-07 10:59 45.61895 9.59254 6956 ft 194 kts 227°
2026-05-07 10:59 45.60928 9.57846 7662 ft 208 kts 226°
2026-05-07 11:00 45.59852 9.56305 8025 ft 230 kts 225°
2026-05-07 11:00 45.58681 9.54635 8608 ft 243 kts 226°
2026-05-07 11:00 45.57430 9.52992 9553 ft 247 kts 215°
2026-05-07 11:00 45.55852 9.51996 10453 ft 252 kts 193°
2026-05-07 11:01 45.54088 9.51942 11300 ft 259 kts 171°
2026-05-07 11:01 45.52371 9.52806 12138 ft 265 kts 159°
2026-05-07 11:01 45.50659 9.53852 12845 ft 271 kts 159°
2026-05-07 11:01 45.48918 9.54908 13061 ft 279 kts 159°
2026-05-07 11:02 45.47047 9.56038 13110 ft 299 kts 159°
2026-05-07 11:02 45.45124 9.57200 13103 ft 303 kts 159°
2026-05-07 11:02 45.43180 9.58377 13093 ft 304 kts 159°
2026-05-07 11:02 45.41237 9.59552 13083 ft 304 kts 159°
2026-05-07 11:03 45.39288 9.60729 13075 ft 304 kts 159°
2026-05-07 11:03 45.37308 9.61623 13060 ft 300 kts 176°
2026-05-07 11:03 45.35293 9.61347 13058 ft 294 kts 201°
2026-05-07 11:03 45.33404 9.60175 13054 ft 293 kts 208°
2026-05-07 11:04 45.31602 9.58903 13047 ft 293 kts 209°
2026-05-07 11:04 45.29779 9.57602 13041 ft 298 kts 209°
2026-05-07 11:04 45.27828 9.56198 13035 ft 331 kts 209°
2026-05-07 11:04 45.25730 9.54680 13026 ft 342 kts 209°
2026-05-07 11:05 45.23600 9.53136 13015 ft 345 kts 209°
2026-05-07 11:05 45.21464 9.51586 13008 ft 345 kts 209°
2026-05-07 11:05 45.19320 9.50031 13000 ft 345 kts 209°
2026-05-07 11:05 45.17181 9.48482 12991 ft 345 kts 209°
2026-05-07 11:06 45.15041 9.46939 13000 ft 345 kts 209°
2026-05-07 11:06 45.12898 9.45397 13001 ft 345 kts 209°
2026-05-07 11:06 45.10759 9.43862 13001 ft 345 kts 209°
2026-05-07 11:06 45.08617 9.42326 13001 ft 345 kts 209°
2026-05-07 11:07 45.06476 9.40790 13000 ft 345 kts 209°
2026-05-07 11:07 45.04333 9.39253 13001 ft 345 kts 209°
2026-05-07 11:07 45.02194 9.37720 12849 ft 343 kts 209°
2026-05-07 11:07 45.00068 9.36196 12273 ft 342 kts 208°
2026-05-07 11:08 44.97958 9.34679 11696 ft 339 kts 209°
2026-05-07 11:08 44.95865 9.33177 11171 ft 336 kts 208°
2026-05-07 11:08 44.93860 9.31522 10622 ft 332 kts 217°
2026-05-07 11:08 44.92036 9.29580 10299 ft 323 kts 218°
2026-05-07 11:09 44.90301 9.27691 10183 ft 308 kts 219°
2026-05-07 11:09 44.88641 9.25885 10054 ft 294 kts 219°
2026-05-07 11:09 44.87053 9.24164 9923 ft 283 kts 219°
2026-05-07 11:09 44.85518 9.22488 9618 ft 276 kts 219°
2026-05-07 11:10 44.84004 9.20828 9218 ft 276 kts 219°
2026-05-07 11:10 44.82499 9.19169 8848 ft 273 kts 219°
2026-05-07 11:10 44.81010 9.17526 8412 ft 272 kts 219°
2026-05-07 11:10 44.79528 9.15895 8038 ft 269 kts 219°
2026-05-07 11:11 44.78055 9.14268 7620 ft 269 kts 219°
2026-05-07 11:11 44.76589 9.12633 7213 ft 268 kts 219°
2026-05-07 11:11 44.75139 9.10991 6743 ft 268 kts 219°
2026-05-07 11:11 44.73693 9.09338 6318 ft 266 kts 218°
2026-05-07 11:12 44.72268 9.07697 5998 ft 263 kts 219°
2026-05-07 11:12 44.70850 9.06055 5988 ft 264 kts 219°
2026-05-07 11:12 44.69432 9.04405 5987 ft 266 kts 219°
2026-05-07 11:12 44.68007 9.02753 5992 ft 265 kts 219°
2026-05-07 11:13 44.66576 9.01104 5995 ft 267 kts 218°
2026-05-07 11:13 44.65160 8.99475 5996 ft 266 kts 219°
2026-05-07 11:13 44.63728 8.97823 5992 ft 268 kts 218°
2026-05-07 11:13 44.62272 8.96157 5998 ft 271 kts 218°
2026-05-07 11:14 44.60815 8.94489 5997 ft 271 kts 219°
2026-05-07 11:14 44.59352 8.92819 5997 ft 271 kts 219°
2026-05-07 11:14 44.57890 8.91155 6004 ft 271 kts 219°
2026-05-07 11:14 44.56423 8.89487 6005 ft 271 kts 218°
2026-05-07 11:15 44.54960 8.87820 5897 ft 269 kts 219°
2026-05-07 11:15 44.53518 8.86167 5451 ft 267 kts 218°
2026-05-07 11:15 44.52181 8.84365 5021 ft 267 kts 226°
2026-05-07 11:15 44.50968 8.82393 4585 ft 266 kts 229°
2026-05-07 11:16 44.49670 8.80579 4169 ft 262 kts 214°
2026-05-07 11:16 44.48134 8.79240 4012 ft 259 kts 208°
2026-05-07 11:16 44.46584 8.77968 3999 ft 253 kts 207°
2026-05-07 11:16 44.45128 8.76777 4002 ft 232 kts 208°
2026-05-07 11:17 44.43803 8.75661 4004 ft 215 kts 208°
2026-05-07 11:17 44.42529 8.74595 4005 ft 212 kts 209°
2026-05-07 11:17 44.41259 8.73545 4008 ft 212 kts 208°
2026-05-07 11:17 44.39995 8.72493 4010 ft 212 kts 209°
2026-05-07 11:18 44.38722 8.71452 4009 ft 213 kts 209°
2026-05-07 11:18 44.37454 8.70373 4004 ft 214 kts 219°
2026-05-07 11:18 44.36566 8.68716 4004 ft 216 kts 249°
2026-05-07 11:18 44.36145 8.66710 4009 ft 216 kts 254°
2026-05-07 11:19 44.35749 8.64677 3873 ft 215 kts 254°
2026-05-07 11:19 44.35368 8.62710 3763 ft 206 kts 254°
2026-05-07 11:19 44.34993 8.60756 3672 ft 203 kts 256°
2026-05-07 11:19 44.35051 8.58876 3600 ft 197 kts 297°
2026-05-07 11:20 44.36032 8.57676 3610 ft 192 kts 345°
2026-05-07 11:20 44.37307 8.57904 3568 ft 189 kts 34°
2026-05-07 11:20 44.37997 8.59387 3521 ft 186 kts 82°
2026-05-07 11:20 44.38065 8.61215 3214 ft 192 kts 88°
2026-05-07 11:21 44.38107 8.63095 2747 ft 192 kts 88°
2026-05-07 11:21 44.38147 8.64863 2619 ft 169 kts 89°
2026-05-07 11:21 44.38184 8.66389 2568 ft 147 kts 89°
2026-05-07 11:21 44.38218 8.67773 2505 ft 139 kts 89°
2026-05-07 11:22 44.38351 8.69072 2357 ft 137 kts 70°
2026-05-07 11:22 44.38815 8.70236 2144 ft 136 kts 63°
2026-05-07 11:22 44.39282 8.71386 1928 ft 135 kts 64°
2026-05-07 11:22 44.39755 8.72517 1738 ft 135 kts 64°
2026-05-07 11:23 44.40235 8.73642 1538 ft 135 kts 62°
2026-05-07 11:23 44.40716 8.74769 1334 ft 134 kts 64°
2026-05-07 11:23 44.41191 8.75892 1140 ft 134 kts 64°
2026-05-07 11:23 44.41670 8.77009 932 ft 134 kts 63°
2026-05-07 11:24 44.42053 8.78175 686 ft 130 kts 80°
2026-05-07 11:24 44.42085 8.79403 565 ft 127 kts 98°
2026-05-07 11:24 44.41895 8.80623 334 ft 129 kts 108°
2026-05-07 11:24 44.41660 8.81826 150 ft 126 kts 105°
2026-05-07 11:25 44.41432 8.82985 27 ft 115 kts 107°
2026-05-07 11:25 44.41260 8.83856 20 ft 70 kts 105°
2026-05-07 11:25 44.41151 8.84398 21 ft 51 kts 105°
2026-05-07 11:25 44.41085 8.84747 17 ft 22 kts 103°
2026-05-07 11:26 44.41111 8.84858 16 ft 11 kts 33°
2026-05-07 11:26 44.41146 8.84883 15 ft 0 kts 20°
2026-05-07 11:26 44.41149 8.84884 15 ft 1 kts 20°
2026-05-07 11:26 44.41153 8.84886 15 ft 0 kts 20°
2026-05-07 11:27 44.41159 8.84889 15 ft 1 kts 20°
2026-05-07 11:27 44.41165 8.84892 17 ft 0 kts 20°
2026-05-07 11:27 44.41167 8.84893 16 ft 1 kts 20°
2026-05-07 11:27 44.41173 8.84896 15 ft 1 kts 20°
2026-05-07 11:28 44.41187 8.84903 15 ft 5 kts 18°
2026-05-07 11:28 44.41244 8.84924 18 ft 7 kts 14°
2026-05-07 11:28 44.41290 8.84941 18 ft 7 kts 15°
2026-05-07 11:28 44.41336 8.84966 19 ft 6 kts 41°
2026-05-07 11:29 44.41339 8.85032 18 ft 9 kts 103°
2026-05-07 11:29 44.41355 8.85086 19 ft 7 kts 19°
2026-05-07 11:29 44.41400 8.85104 18 ft 3 kts 16°
2026-05-07 11:29 44.41406 8.85106 18 ft 0 kts 15°